Location: Palomar Mountain Lodge
(33.3110°N, 116.8495°W)
Time: 02:27:19
(UTC-07:00)

H-2A R/B - Pass Details

Date: 14 June 2018
Orbit: 734 x 836 km, 98.3° (Epoch: 20 October)

Event Time Altitude Azimuth Distance (km) Brightness Sun altitude
Exits shadow 22:19:11 31° 207° (SSW) 1,334 3.0 -23.2°
Maximum altitude 22:21:12 47° 261° (W) 1,028 2.8 -23.5°
Drops below altitude 10° 22:26:17 10° 335° (NNW) 2,385 5.6 -24.1°
Sets 22:28:45 0° 341° (NNW) 3,334 6.5 -24.4°
